Regional Weather Roundup
Issued by NWS Pendleton, OR

Home | Current Version | Previous Version | Text Only | Print | Product List | Glossary On
Versions: 1 2 3 4 5 6 7 8 9 10 11 12 13 14 15 16 17 18 19 20 21 22 23 24 25 26 27 28 29 30 31 32 33 34 35 36 37 38 39 40 41 42 43 44 45 46 47 48 49 50
000
ASUS46 KPDT 200904
RWRPDT
PENDLETON REGIONAL WEATHER ROUNDUP
NATIONAL WEATHER SERVICE PENDLETON OREGON
200 AM PDT FRI APR 20 2018

NOTE: FAIR INDICATES FEW OR NO CLOUDS BELOW 12,000 FEET WITH NO
SIGNIFICANT WEATHER AND/OR OBSTRUCTIONS TO VISIBILITY.

# INDICATES UNOFFICIAL STATION AND DATA

WAZ520-201010-
EAST SLOPES OF WASHINGTON CASCADES

CITY            SKY/WX      TMP DP  RH  WIND    PRES   REMARKS
#BULLFROG       N/A         35  33  92  CALM    N/A
#CLE ELUM HS    N/A         37  33  85  CALM    30.15F
#EASTON DOT     N/A         36  34  92  CALM    N/A
#ELK HTS DOT    N/A         42  42  100 W2      N/A
#GLENWOOD       N/A         32  29  89  CALM    30.23S
#NELSON 3SW     N/A         36  32  85  CALM    30.43S
#NILE           N/A         36  31  82  CALM    29.55F
#TEANAWAY 4NE   N/A         37  32  82  W3      N/A
#TROUT LAKE 1NE N/A         36  33  89  NW1     30.24S
#TROUT LAKE 1E  N/A         33  31  92  CALM    30.24S
$$

WAZ521-201010-
SIMCOE HIGHLANDS

CITY            SKY/WX      TMP DP  RH  WIND    PRES   REMARKS
#BICKLETON HS   N/A         42  32  67  N8      29.82R
#SATUS PASS DOT N/A         35  28  75  CALM    N/A
#CENTERVILLE 1SWN/A         45  32  60  CALM    30.17S
#GOLDENDALE 1NE N/A         41  16  36  SW2     N/A
#GOLDENDALE 4W  N/A         38  24  57  CALM    30.24R
#GOODNOE HILLS  N/A         48  33  56  W8      30.10S
#LYLE 6NE       N/A         46  36  68  CALM    30.23S
#PITT 4SE       N/A         42  34  73  CALM    30.24S
$$

WAZ026-201010-
KITTITAS VALLEY

CITY            SKY/WX      TMP DP  RH  WIND    PRES   REMARKS
ELLENSBURG AP   PTCLDY      44  34  68  N3      30.20S
#ELLENSBURG CWU N/A         44  34  68  NW5     30.14S
#ELLENSBURG 3NE N/A         44  35  70  CALM    28.27R
#ELLENSBURG 1E  N/A         45  34  65  CALM    30.26R
#KITTITAS 3S    N/A         37  32  82  CALM    30.20S
#MANASTASH RDG  N/A         42  42  100 NW5     N/A
#ROCKY CYN DOT  N/A         41  35  79  NW2     N/A
#RYEGRASS DOT   N/A         40  31  70  CALM    N/A
$$

WAZ027-201010-
YAKIMA VALLEY

CITY            SKY/WX      TMP DP  RH  WIND    PRES   REMARKS
SUNNYSIDE AP    CLEAR       40  35  82  E3      30.20R
YAKIMA AIRPORT  PTCLDY      49  34  56  CALM    30.20S
YAKIMA-VAGABOND CLEAR       46  30  53  NE5     30.18F
#DONALD 2NE     N/A         50   7  17  NW8     29.02S
#GRANDVIEW      N/A         43  34  70  CALM    30.21R
#MABTON         N/A         49  38  66  CALM    30.19S
#MOXEE 2E       N/A         37  N/A N/A SW12    29.79S WCI 29
#NACHES 2SW     N/A         47  35  63  W6      30.19R
#OUTLOOK DOT    N/A         51  34  52  CALM    30.15S
#PARKER DOT     N/A         51  33  50  S6      30.18S
#TERRACE HTS    N/A         47  32  56  N1      30.15S
#TOPPENISH      N/A         50  36  58  CALM    30.11S
#I82 S UMTANUM RN/A         48  27  44  NW9     N/A
#UNION GAP DOT  N/A         48  34  58  CALM    30.23R
#W YAKIMA       N/A         46  34  63  N1      30.20S
#WHITE SWAN 5E  N/A         41  34  76  CALM    30.20S
#WILEY CITY 3W  N/A         37  27  67  CALM    30.16S
#ZILLAH DOT     N/A         49  33  54  NW2     N/A
$$

WAZ028-201010-
LOWER COLUMBIA BASIN...WASHINGTON

CITY            SKY/WX      TMP DP  RH  WIND    PRES   REMARKS
PASCO           CLEAR       47  36  65  N3      30.20R
PROSSER AWOS    N/A         41  37  86  CALM    30.23R
RICHLAND AWOS   CLEAR       44  38  79  N5      30.20R
#BASIN CITY 5SW N/A         46  37  71  CALM    30.17R
#BENTON CITY    N/A         45  37  73  CALM    30.10R
#CONNELL 5N     N/A         41  35  79  N1      30.18R
#CONNELL 5NW    N/A         41  35  79  CALM    30.13R
#ELTOPIA 6NW    N/A         49  36  61  CALM    29.15R
#KAHLOTUS       N/A         46  35  65  N7      30.16S
#KENNEWICK 3S   N/A         51  35  54  CALM    30.19S
#PROSSER DOT    N/A         44  38  79  CALM    30.20R
#SAGEMOOR 2W    N/A         49  37  63  W8      30.04S
#TOUCHET 2S     N/A         43  38  82  NW1     30.18S
$$

WAZ029-201010-
FOOTHILLS OF THE BLUES...WASHINGTON

CITY            SKY/WX      TMP DP  RH  WIND    PRES   REMARKS
WALLA WALLA AP  CLEAR       45  35  68  W5      30.19R
#CLYDE 6NW      N/A         41  33  73  CALM    30.18R
#DELANEY DOT    N/A         39  34  82  CALM    30.20R
#LOWDEN 2SE     N/A         38  35  89  CALM    30.17R
#PLEASANT VIEW 1N/A         46  34  63  SW7     30.21R
#PRESCOTT       N/A         39  35  85  CALM    30.19R
#WHITMAN COLLEGEN/A         48  36  63  CALM    30.24R
#WAITSBURG 5S   N/A         46  33  60  CALM    30.28S
#WAITSBURG 6SSE N/A         45  32  60  E3      30.02R
#WAITSBURG 8N   N/A          0  N/A N/A CALM    29.94S
#WALLA WALLA 5E N/A         44  36  73  N5      N/A
#WHITMAN MISSIONN/A         43  37  79  CALM    30.21R
$$

WAZ030-201010-
BLUE MOUNTAINS...WASHINGTON

CITY            SKY/WX      TMP DP  RH  WIND    PRES   REMARKS
#DIXIE 5SE      N/A         48  29  47  S3      30.10S
$$

ORZ009-041-WAZ024-201010-
COLUMBIA RIVER GORGE

CITY            SKY/WX      TMP DP  RH  WIND    PRES   REMARKS
HOOD RIVER AP   CLEAR       43  34  70  SW5     30.25S
THE DALLES AP   CLEAR       52  36  54  W7      30.23R
#ARLINGTON AIRPON/A         49  34  56  SW3     30.21R
#CELILO DOT     N/A         53  31  43  SW3     N/A
#LYLE           N/A         51  38  61  N2      30.24S
#MARYHILL       N/A         48  33  56  N3      30.07S
#MURDOCK        N/A         50  40  68  W7      30.19S
#RUFUS DOT      N/A         53  N/A N/A NW5     N/A

$$

ORZ510-201010-
NORTH CENTRAL OREGON

CITY            SKY/WX      TMP DP  RH  WIND    PRES   REMARKS
#ANTELOPE       N/A         35  29  78  NE2     30.12S
#CHENOWITH 1W   N/A         45  34  65  W23     N/A    WCI 36
#COW CYN RST AREN/A         45  N/A N/A S2      N/A
#DUFUR          N/A         33  28  82  CALM    30.20S
#DUFUR 9E       N/A         48  33  56  W5      30.27S
#GRASS VALLEY 1SN/A         40  30  67  SW2     30.22R
#KENT DOT       N/A         38  21  50  SW8     N/A
#MAUPIN SCHOOL  N/A         44  32  62  CALM    30.29R
#SHANIKO 5WSW   N/A         43  27  53  SW2     N/A
#SHANIKO 4NW    N/A         42  27  55  W5      30.21S
#TYGH VALLEY 2NEN/A         39  32  76  CALM    30.22S
#WAPANITIA AIRPON/A         40  31  70  NW1     30.24S
#WASCO DOT      N/A         40  32  73  CALM    N/A
#WASCO 5NE      N/A         44  33  65  N3      30.19S
$$

ORZ511-201010-
CENTRAL OREGON

CITY            SKY/WX      TMP DP  RH  WIND    PRES   REMARKS
BEND AIRPORT    CLEAR       36  30  79  S5      30.25S
MADRAS AIRPORT  CLEAR       37  32  82  S3      30.25S
PRINEVILLE AP   CLEAR       32  28  85  CALM    30.24S
REDMOND AIRPORT CLEAR       34  30  85  S3      30.23S
#ASHWOOD SCHOOL N/A         38  32  79  SE2     30.20R
#BEND 1SW       N/A         31  28  88  CALM    N/A
#BEND-AWBREY    N/A         37  32  82  S2      30.24S
#BEND-KIM LN    N/A         32  28  85  SW1     30.19S
#CULVER         N/A         39  31  73  CALM    30.07S
#CULVER 8W      N/A         34  29  82  CALM    30.21F
#LAKE BILLY CHINN/A         40  N/A N/A CALM    30.31R
#POWELL BUTTE   N/A         42  29  60  S3      30.16S
#PRINEVILLE     N/A         34  30  85  CALM    30.34S
#PRINEVILLE 3N  N/A         35  31  85  W3      30.24S

$$


ORZ509-201010-
EAST SLOPES OF OREGON CASCADES

CITY            SKY/WX      TMP DP  RH  WIND    PRES   REMARKS
SISTERS AWOS    N/A         32  28  85  CALM    30.19S
#BLUE BOX PASS  N/A         38  N/A N/A NW2     N/A
#CAMP SHERMAN   N/A         30  27  88  CALM    30.31F
#LA PINE 4NW    N/A         26  22  85  CALM    30.31R
#LAVA BUTTE DOT N/A         28  25  88  CALM    N/A
#SISTERS ODOT   N/A         30  27  88  CALM    N/A
#SISTERS 3N     N/A         30  22  72  CALM    30.20F
#SUNRIVER       N/A         28  25  88  CALM    30.28S
#TUMALO 3W      N/A         40  31  70  NW1     30.12S
#WANOGA BUTTE D N/A         35  N/A N/A CALM    N/A

$$

ORZ044-201010-
LOWER COLUMBIA BASIN...OREGON

CITY            SKY/WX      TMP DP  RH  WIND    PRES   REMARKS
HERMISTON       CLEAR       43  36  76  N7      30.19R
#BOARDMAN SCHOOLN/A         49  37  63  SW2     30.19R
#BOARDMAN 8SW   N/A         45  36  70  SW7     30.20R
#ECHO 8SW       N/A         47  36  65  CALM    30.20R
#I-84 EX 198 DOTN/A         48  33  56  NE8     N/A
#IONE SCHOOL    N/A         42  27  55  CALM    30.23R
#UMATILLA       N/A         45  35  68  CALM    30.12S
$$

ORZ507-201010-
NORTHERN FOOTHILLS OF THE BLUES

CITY            SKY/WX      TMP DP  RH  WIND    PRES   REMARKS
PENDLETON AIRPT CLEAR       44  32  62  SE8     30.19S
#ADAMS 3WNW     N/A         34  31  89  CALM    30.20S
#ATHENA         N/A         37  31  79  CALM    30.24R
#CAYUSE         N/A         45  35  68  E7      30.20R
#HELIX SCHOOL   N/A         33  30  89  CALM    30.21S
#HELIX 3N       N/A         44  34  68  S1      30.19S
#HOLDMAN 5SE    N/A         39  34  82  CALM    30.18R
#HOLDMAN 6E     N/A         42  34  73  CALM    30.01R
#M-F GROVE ELEM N/A         46  32  58  CALM    30.16R
#M-FREEWATER 5SEN/A         46  34  63  E9      30.18S
#PENDLETON DNTN N/A         39  29  67  E2      N/A
#PDT AQUATIC CTRN/A         40  29  64  VRB1    30.16S
#PDT SUNRIDGE   N/A         40  33  76  CALM    30.22S
#PENDLETON 6SE  N/A         40  34  79  S3      30.16S
#PENDLETON 7NW  N/A         38  32  79  CALM    27.38S
#PILOT ROCK 1S  N/A         45  28  51  SE7     30.20S
#PILOT ROCK     N/A         41  31  67  CALM    30.20S
#TUTUILLA       N/A         34  30  85  CALM    30.24S
#UMAPINE 2E     N/A         44  37  76  CALM    30.17R

$$

ORZ508-201010-
SOUTHERN FOOTHILLS OF THE BLUES

CITY            SKY/WX      TMP DP  RH  WIND    PRES   REMARKS
#AJAX           N/A         47  25  42  CALM    30.35R
#CONDON 5W      N/A         42  26  53  W7      30.18S
#FOSSIL SCHOOL  N/A         35  32  89  CALM    30.16R
#HEPPNER EOC    N/A         41  33  73  SE8     30.16S
#HEPPNER 4NE    N/A         43  31  62  SW2     30.23R
#LEXINGTON 2SE  N/A         43  33  67  SE7     30.19R
#MIKKALO        N/A         46  29  51  S1      30.30S
#OLEX 4N        N/A         45  35  68  SW5     30.18R
#RUGGS 2SW      N/A         40  31  70  SW9     30.25S

$$

ORZ502-503-201010-
BLUE MOUNTAINS

CITY            SKY/WX      TMP DP  RH  WIND    PRES   REMARKS
MEACHAM         CLEAR       28  25  88  CALM    30.20S
#BATTLE MTN DOT N/A         34  25  69  CALM    N/A
#GRANITE        N/A         27  16  63  CALM    29.85S
#HEPPNER 15SE   N/A         31  27  85  CALM    25.70F
#LADD CYN SMT   N/A         36  29  75  CALM    N/A
#LADD CREEK ODOTN/A         39  24  54  S3      N/A
#N POWDER DOT   N/A         37  28  70  NW8     N/A
#PIKES PEAK     N/A         47  27  45  S8      27.99S
#SUMMERVILLE 5NWN/A         34  30  85  CALM    26.82S
#TOLLGATE       N/A         33  27  78  CALM    30.20S
#TROY SCHOOL    N/A         41  35  79  CALM    30.06R
#UKIAH          N/A         26  24  92  CALM    30.17S
#WESTON 4E      N/A         42  30  62  SE1     30.18S
$$

ORZ505-201010-
JOHN DAY BASIN

CITY            SKY/WX      TMP DP  RH  WIND    PRES   REMARKS
JOHN DAY        CLEAR       37  29  72  E3      30.21S
#ANTELOPE 9ESE  N/A         40  35  82  S1      N/A
#MITCHELL 8NW   N/A         44  30  58  CALM    30.27S
#MONUMENT HS    N/A         36  30  79  CALM    30.18S
#MT. VERNON 5SE N/A         37  28  70  CALM    30.15S
$$

ORZ506-201010-
OCHOCO AND JOHN DAY HIGHLANDS

CITY            SKY/WX      TMP DP  RH  WIND    PRES   REMARKS
#HORSE RIDGE DO N/A         27  24  88  CALM    N/A
#KEYES SMT DOT  N/A         34  27  75  NW8     N/A
#PAULINA ODOT   N/A         33  27  78  CALM    N/A
#PINE MTN OBS   N/A         31  28  88  CALM    N/A
#PRAIRIE CITY   N/A         29  25  85  CALM    30.36R
#SENECA         N/A         33  N/A N/A N2      N/A
#SENECA 9NW     N/A         32  25  75  CALM    30.18S
$$

ORZ049-201010-
GRANDE RONDE VALLEY

CITY            SKY/WX      TMP DP  RH  WIND    PRES   REMARKS
LA GRANDE       CLEAR       39  30  70  NW12    30.20S WCI 32
#COVE SCHOOL    N/A         36  31  82  CALM    30.19S
#COVE 6NW       N/A         34  29  82  CALM    30.20S
#ELGIN 3N       N/A         33  26  75  CALM    30.16S
#ELGIN 1E       N/A         36  30  79  CALM    N/A
#IMBLER SCHOOL  N/A         36  30  79  CALM    30.15R
#ISLAND CITY 4N N/A         41  34  76  CALM    30.29S
#LADD CYN DOT   N/A         41  32  70  SE7     N/A
#UNION 1S       N/A         39  31  73  CALM    30.19S
$$

ORZ050-201010-
WALLOWA COUNTY

CITY            SKY/WX      TMP DP  RH  WIND    PRES   REMARKS
#ENTERPRISE HS  N/A         31  26  81  CALM    30.10S
#IMNAHA SCHOOL  N/A         41  34  76  S1      30.20R
#IMNAHA 10S     N/A         39  30  70  SW6     30.18R
#JOSEPH         N/A         34  25  69  CALM    30.35F
#JOSEPH 3N      N/A         28  20  71  CALM    30.21F
#JOSEPH 3W      N/A         34  28  78  SW3     30.01F
#LOSTINE        N/A         35  29  78  SE2     30.01F
#LOSTINE 3SE    N/A         34  28  78  W5      30.25F
#MT HOWARD 8000 N/A         26  21  81  N1      30.14F
#PROMISE 1S     N/A         35  29  78  SW1     30.27S
#WALLOWA LAKE   N/A         36  28  72  E1      30.22S
#WALLOWA SCHOOL N/A         31  28  88  CALM    30.16S



$$



USA.gov is the U.S. government's official web portal to all federal, state and local government web resources and services.